#timestamp,LO_Frequency,Hit,StdDev 
1597414455.1,286047008.6,P
1597414475.9,286047009.2,P
1597414495.7,286047008.6,P
1597414515.5,286047006.1,Y
1597414535.4,286047000.0,P
1597414555.2,286046998.7,N
1597414575.1,286046999.3,N
1597414576.0,286046999.3,N
1597414595.8,286047001.2,N
1597414615.6,286046998.9,N
1597414635.5,286046998.4,N
1597414655.3,286046998.7,N
1597414675.1,286046998.6,N
1597414695.9,286046999.0,N
1597414715.7,286046998.4,N
1597414735.6,286046998.8,N
1597414755.4,286046998.4,N
1597414775.2,286046998.1,N
1597414795.1,286047001.2,N
1597414796.0,286047001.2,N
1597414815.8,286046998.1,N
1597414835.7,286047000.7,N
1597414855.5,286046998.6,N
1597414875.3,286047000.1,N
1597414895.2,286047002.7,N
1597414915.0,286047002.2,N
1597414915.9,286047002.2,N
1597414935.8,286047002.2,N
1597414955.6,286047002.2,N
1597414975.4,286047002.6,N
1597414995.3,286047002.1,N
1597415015.1,286047004.3,N
1597415035.8,286047001.3,N
1597415055.7,286047002.5,N
1597415075.5,286047001.9,N
1597415095.4,286047001.3,N
1597415115.2,286047002.3,N
1597415135.0,286047001.9,N
1597415135.9,286047001.9,N
1597415155.8,286047001.5,N
1597415175.6,286047001.6,N
1597415195.4,286047003.7,N
1597415215.3,286047003.5,N
1597415235.1,286047003.9,N
1597415255.9,286047001.7,N
1597415275.7,286047004.0,N
1597415295.5,286047002.7,N
1597415315.4,286047002.2,N
1597415335.2,286047004.2,Y
1597415355.1,286047002.7,P
1597415356.0,286047002.7,P
1597415375.8,286047002.4,P
1597415395.6,286047002.7,Y
1597415415.5,286047001.2,P
1597415435.3,286047000.5,N
1597415455.1,286046998.5,N
1597415475.9,286046998.6,N
1597415495.7,286046998.7,N
1597415515.6,286046998.4,N
1597415535.4,286046998.9,N
1597415555.2,286046998.3,N
1597415575.1,286046998.4,N
1597415576.0,286046998.4,N
1597415595.8,286046998.5,N
1597415615.6,286046999.2,N
1597415635.5,286046998.2,N
1597415655.3,286046998.6,N
1597415675.2,286046998.6,N
1597415695.9,286047000.8,N
1597415715.7,286047001.1,N
1597415735.6,286047000.1,N
1597415755.4,286046999.9,N
1597415775.2,286046999.9,N
1597415795.1,286046999.9,N
1597415796.0,286046999.9,N
1597415815.8,286047002.4,N
1597415835.7,286047000.1,N
1597415855.5,286047000.2,N
1597415875.3,286046999.7,N
1597415895.2,286047000.2,N
1597415915.0,286047000.3,N
1597415915.9,286047000.3,N
1597415935.7,286047000.1,N
1597415955.6,286047000.0,N
1597415975.4,286047001.9,N
1597415995.3,286047001.8,N
1597416015.1,286047002.2,N
1597416035.8,286047001.7,N
1597416055.7,286047001.7,N
1597416075.5,286047001.6,N
1597416095.3,286047002.0,N
1597416115.2,286047001.7,N
1597416135.0,286047001.3,N
1597416135.9,286047001.3,N
1597416155.8,286047003.9,Y
1597416175.6,286047004.0,P
1597416195.4,286047002.1,N
1597416215.3,286047001.3,N
1597416235.1,286047004.3,Y
1597416255.9,286046999.9,P
1597416275.7,286047000.4,N
1597416295.5,286047000.0,N
1597416315.4,286047002.6,Y
1597416335.2,286047000.2,P
1597416355.0,286047000.1,N
1597416355.9,286047000.1,N
1597416375.8,286047002.8,Y
1597416395.6,286047002.8,P
1597416415.5,286047002.3,N
1597416435.3,286047002.0,N
1597416455.1,286047002.0,N
1597416475.9,286047002.4,N
1597416495.7,286047001.9,N
1597416515.6,286047002.3,Y
1597416535.4,286047000.5,P
1597416555.2,286047000.0,N
1597416575.1,286047000.5,N
1597416576.0,286047000.5,N
1597416595.8,286047000.4,N
1597416615.7,286047000.8,N
1597416635.5,286047000.9,N
1597416655.3,286047000.6,N
1597416675.2,286047000.7,N
1597416695.0,286047011.9,Y
1597416695.9,286047000.4,P
1597416715.8,286046998.8,P
1597416735.6,286047000.7,N
1597416755.4,286047001.0,N
1597416775.3,286047000.4,N
1597416795.1,286047000.6,N
1597416815.8,286046999.9,N
1597416835.7,286047000.2,N
1597416855.5,286046999.8,N
1597416875.4,286047001.4,N
1597416895.2,286047002.1,Y
1597416915.0,286047002.3,P
1597416915.9,286047002.3,N
1597416935.8,286047002.1,N
1597416955.6,286047002.7,Y
1597416975.5,286047000.5,P
1597416995.3,286047001.1,N
1597417015.1,286047000.4,N
1597417035.9,286047002.4,Y
1597417055.7,286046999.8,P
1597417075.5,286047000.3,N
1597417125.4,286047002.4,E
1597417135.3,286046999.9,N
1597417155.1,286046998.5,P
1597417175.9,286046999.4,N
1597417195.7,286046998.3,N
